[[{"header":{"parameterUnit":"m.s-1","parameterCategory":1,"la1":30.2991,"la2":30.254,"lo1":-89.0895,"lo2":-89.0444,"dy":0.0017,"dx":0.0017,"nx":28,"ny":28,"refTime":"2025-08-20T09:00:00:Z","depth":0,"parameterNumber":2,"parameterNumberName":"U-component_of_WINDS"},"data":[0,0,0,0,0,0,0,0,0,0,0,0,0,0,0,0,0,0,0,0,0,0,0,0,0,0,0,0,0,0,0,0,0,0,0,0,0,0,0,0,0,0,0,0,0,0,0,0,0,0,0,0,0,0,0,0,0,0,2.0899,2.09,0,2.099,2.0991,2.0992,2.1022,2.1022,2.1021,2.1021,2.1117,2.112,2.1123,0,0,0,0,0,0,0,0,0,0,0,0,0,2.0752,2.0755,2.0899,2.09,2.0901,2.099,2.0991,2.0993,2.1022,2.1022,2.1021,2.1021,2.1116,2.112,2.1123,0,0,0,0,0,0,0,0,0,0,0,0,0,2.0827,2.0756,2.0899,2.0927,2.093,2.099,2.0991,2.0993,2.1022,2.1022,2.1021,2.1021,2.1115,2.112,2.1124,2.1163,0,0,2.1137,2.1139,0,0,0,0,0,0,0,0,2.0823,2.0833,2.0921,2.0925,2.0929,2.0994,2.0975,2.105,2.1023,2.0987,2.1021,2.102,2.1077,2.1085,2.1103,2.1168,2.1172,2.1138,2.114,2.1142,2.1144,0,0,0,0,0,0,0,2.0818,2.0829,2.0935,2.0923,2.0927,2.0935,2.0945,2.0989,2.1035,2.099,2.0993,2.1003,2.1079,2.1099,2.1106,2.1173,2.1138,2.1142,2.1144,2.1146,2.1275,2.1276,0,0,0,0,0,0,2.0807,2.0824,2.0932,2.0938,2.0873,2.0938,2.095,2.0974,2.1034,2.1043,2.1003,2.1004,2.1092,2.11,2.1109,2.1159,2.1142,2.1146,2.1149,2.1275,2.1276,2.1276,0,0,0,0,0,0,2.0804,2.0817,2.0929,2.0882,2.0897,2.0942,2.0969,2.0976,2.0996,2.1044,2.1053,2.1015,2.1091,2.1103,2.115,2.1163,2.1148,2.1152,2.1274,2.1275,2.1276,2.126,0,0,0,0,0,0,2.08,2.0815,2.083,2.0882,2.0899,2.0966,2.0969,2.0978,2.1003,2.1005,2.1057,2.1066,2.1092,2.1143,2.1154,2.1169,2.1156,2.1273,2.1274,2.1276,2.1259,2.126,2.1261,0,0,0,0,0,2.0794,2.0823,2.0831,2.0844,2.0918,2.0967,2.0977,2.1006,2.1004,2.102,2.1051,2.1064,2.116,2.1147,2.116,2.1177,2.1272,2.1274,2.1276,2.1259,2.126,2.1261,0,0,0,0,0,0,2.0772,2.083,2.084,2.0885,2.0921,2.0972,2.0993,2.1006,2.1044,2.1044,2.1079,2.1091,2.1135,2.1161,2.1146,2.1218,2.1217,2.1221,2.12,2.1201,2.1202,2.1195,2.116,0,0,0,0,0,2.0773,2.0807,2.0856,2.0891,2.0908,2.0947,2.097,2.0989,2.1028,2.1043,2.1078,2.1116,2.1154,2.1179,2.1218,2.1263,2.1275,2.1281,2.1282,2.1282,2.1286,2.1312,2.1315,2.1282,2.1282,2.1282,0,0,2.0774,2.0809,2.0829,2.0887,2.0917,2.0953,2.096,2.0997,2.1024,2.1049,2.1095,2.1122,2.1166,2.1212,2.1235,2.1235,2.1297,2.1285,2.1284,2.1288,2.1314,2.1317,2.132,2.1283,2.1283,2.1283,0,0,2.0794,2.0824,2.0857,2.0887,2.0932,2.0957,2.0965,2.1015,2.1033,2.1079,2.1099,2.1132,2.1198,2.1229,2.1253,2.1285,2.1298,2.1296,2.1301,2.1326,2.1328,2.1331,2.1342,2.1346,2.13,2.13,2.1299,0,2.079,2.0843,2.0872,2.0908,2.0933,2.0957,2.0991,2.1019,2.1074,2.1092,2.1091,2.1174,2.1206,2.126,2.1267,2.1286,2.1297,2.129,2.1326,2.1328,2.1331,2.1342,2.1346,2.1299,2.1299,2.1299,2.1299,0,2.0836,2.0872,2.0894,2.0946,2.0973,2.1008,2.1043,2.1068,2.1085,2.1111,2.1158,2.1197,2.1243,2.1257,2.1275,2.1314,2.1313,2.1318,2.1318,2.1333,2.1344,2.1349,2.1298,2.1298,2.1299,2.1299,0,0,2.0845,2.0912,2.0919,2.0943,2.0995,2.1024,2.106,2.1105,2.1125,2.1163,2.1194,2.1249,2.1255,2.1282,2.1303,2.1325,2.1347,2.1328,2.133,2.133,2.1393,2.1388,2.1393,2.1357,2.1358,2.1358,2.1389,0,2.0871,2.0935,2.0963,2.1015,2.1049,2.1073,2.1104,2.1139,2.1165,2.1198,2.1226,2.1265,2.1269,2.1286,2.1309,2.134,2.1361,2.1338,2.1387,2.1388,2.1375,2.1398,2.1394,2.1421,2.1394,2.1395,2.1395,0,2.0911,2.0948,2.1003,2.105,2.1065,2.1093,2.1136,2.1167,2.1208,2.1225,2.1256,2.1275,2.1315,2.1311,2.1366,2.135,2.1372,2.139,2.1392,2.1397,2.1392,2.1405,2.143,2.1434,2.1402,2.1402,2.1401,0,2.0911,2.0975,2.1016,2.1036,2.1092,2.1111,2.1135,2.1175,2.12,2.1238,2.1255,2.1297,2.132,2.1353,2.1384,2.1378,2.1436,2.1435,2.1451,2.1451,2.1462,2.1461,2.1492,2.1476,2.1476,2.1476,2.1476,0,2.0938,2.0971,2.1017,2.1042,2.108,2.1112,2.1148,2.1175,2.121,2.1241,2.1264,2.1293,2.1332,2.1366,2.1391,2.1433,2.1443,2.1458,2.1464,2.1456,2.1454,2.1471,2.147,2.1477,2.1477,2.1477,2.1477,0,2.0945,2.0977,2.1024,2.1073,2.1086,2.1112,2.1154,2.118,2.1206,2.1245,2.1256,2.1298,2.1339,2.1373,2.1428,2.1444,2.1488,2.1495,2.1473,2.1477,2.1491,2.1489,2.1533,2.1541,2.152,2.152,2.152,0,2.096,2.0986,2.1037,2.106,2.1084,2.1119,2.1145,2.1177,2.1203,2.1251,2.1271,2.1314,2.135,2.1415,2.145,2.1492,2.15,2.1513,2.1507,2.1498,2.1501,2.1498,2.1501,2.1513,2.1513,2.1513,2.1514,0,2.0983,2.0998,2.1033,2.1074,2.1104,2.1138,2.1172,2.1189,2.1228,2.1256,2.1298,2.1326,2.1381,2.1423,2.1469,2.1495,2.1511,2.1515,2.1521,2.1513,2.1499,2.1507,2.1475,2.1514,2.1514,2.1514,2.1514,2.1514,2.0995,2.1018,2.1058,2.1097,2.1127,2.1158,2.1185,2.1214,2.125,2.1296,2.1314,2.1357,2.1397,2.146,2.1486,2.1521,2.1522,2.1531,2.1533,2.1535,2.1534,2.1494,2.1529,2.1529,2.1529,2.1529,2.1529,0,2.1019,2.1045,2.1081,2.1128,2.1159,2.117,2.1209,2.1234,2.1272,2.1308,2.1342,2.1391,2.1432,2.147,2.1513,2.1534,2.1542,2.1544,2.1543,2.1549,2.153,2.152,2.1536,2.1536,2.1536,2.1536,2.1536,2.1536,2.1035,2.1076,2.1095,2.1151,2.1178,2.122,2.1241,2.1271,2.1299,2.1352,2.1386,2.1411,2.1448,2.1494,2.1532,2.1542,2.1557,2.1557,2.1569,2.1551,2.155,2.1549,2.154,2.156,2.156,2.1585,2.1586,2.1586]},{"header":{"parameterUnit":"m.s-1","parameterCategory":1,"la1":30.2991,"la2":30.254,"lo1":-89.0895,"lo2":-89.0444,"dy":0.0017,"dx":0.0017,"nx":28,"ny":28,"refTime":"2025-08-20T09:00:00:Z","depth":0,"parameterNumber":3,"parameterNumberName":"V-component_of_WINDS"},"data":[0,0,0,0,0,0,0,0,0,0,0,0,0,0,0,0,0,0,0,0,0,0,0,0,0,0,0,0,0,0,0,0,0,0,0,0,0,0,0,0,0,0,0,0,0,0,0,0,0,0,0,0,0,0,0,0,0,0,3.2593,3.2593,0,3.2587,3.2587,3.2587,3.2592,3.2593,3.2593,3.2593,3.2585,3.2584,3.2584,0,0,0,0,0,0,0,0,0,0,0,0,0,3.2607,3.2607,3.2593,3.2593,3.2593,3.2587,3.2587,3.2587,3.2592,3.2593,3.2593,3.2593,3.2585,3.2584,3.2584,0,0,0,0,0,0,0,0,0,0,0,0,0,3.2601,3.2607,3.2593,3.2595,3.2595,3.2587,3.2587,3.2587,3.2592,3.2593,3.2593,3.2593,3.2585,3.2585,3.2584,3.2573,0,0,3.2582,3.2582,0,0,0,0,0,0,0,0,3.2601,3.26,3.2595,3.2595,3.2595,3.2591,3.2589,3.2582,3.2592,3.2593,3.2593,3.2594,3.2586,3.2586,3.2584,3.2573,3.2572,3.2582,3.2581,3.2581,3.2581,0,0,0,0,0,0,0,3.2602,3.2601,3.2591,3.2595,3.2595,3.2595,3.2595,3.2588,3.2588,3.2593,3.2594,3.2593,3.2587,3.2584,3.2584,3.2572,3.2582,3.2581,3.2581,3.2581,3.2549,3.2549,0,0,0,0,0,0,3.2602,3.2601,3.2591,3.2591,3.2599,3.2595,3.2594,3.2592,3.2588,3.2588,3.2593,3.2593,3.2585,3.2584,3.2583,3.2569,3.2581,3.2581,3.258,3.255,3.2549,3.2549,0,0,0,0,0,0,3.2603,3.2601,3.2591,3.2596,3.2595,3.2594,3.2592,3.2592,3.259,3.2588,3.2588,3.2591,3.2586,3.2584,3.2575,3.2569,3.258,3.258,3.255,3.255,3.2549,3.2541,0,0,0,0,0,0,3.2603,3.2601,3.2598,3.2596,3.2594,3.2584,3.2591,3.2591,3.2589,3.2589,3.2586,3.2585,3.2586,3.2576,3.2574,3.2568,3.2579,3.2551,3.255,3.2549,3.2542,3.254,3.2539,0,0,0,0,0,3.2603,3.2596,3.2598,3.2597,3.259,3.2584,3.2583,3.2584,3.2588,3.2584,3.2583,3.2585,3.257,3.2575,3.2573,3.2567,3.2551,3.255,3.2549,3.2542,3.254,3.2539,0,0,0,0,0,0,3.2597,3.2596,3.2598,3.259,3.2587,3.2585,3.258,3.2582,3.2578,3.2578,3.2579,3.2578,3.2568,3.2567,3.2573,3.2555,3.2561,3.256,3.2556,3.2554,3.2553,3.2553,3.2579,0,0,0,0,0,3.2595,3.2591,3.2589,3.2582,3.2581,3.2581,3.2578,3.2579,3.2576,3.2574,3.2572,3.2568,3.2562,3.2558,3.2553,3.2541,3.254,3.2536,3.2534,3.2533,3.2531,3.2523,3.2521,3.2545,3.2545,3.2545,0,0,3.259,3.2589,3.2586,3.2581,3.2579,3.2573,3.258,3.2574,3.2569,3.2573,3.2564,3.2562,3.2558,3.2547,3.2542,3.2545,3.2524,3.2532,3.2531,3.253,3.2522,3.252,3.2518,3.2545,3.2545,3.2545,0,0,3.2579,3.2578,3.2571,3.2569,3.2565,3.2565,3.2563,3.2561,3.256,3.2551,3.2553,3.2547,3.2537,3.2533,3.253,3.2515,3.2517,3.2513,3.2505,3.2497,3.2495,3.2493,3.2486,3.2484,3.2512,3.2512,3.2512,0,3.2573,3.2566,3.2567,3.2561,3.2558,3.2561,3.2554,3.2551,3.2546,3.2543,3.2547,3.2533,3.253,3.2518,3.2514,3.2512,3.2508,3.2514,3.2495,3.2494,3.2492,3.2485,3.2483,3.2511,3.2511,3.2511,3.2511,0,3.2558,3.2553,3.2548,3.2542,3.2539,3.2532,3.2531,3.2527,3.2528,3.2527,3.2516,3.2513,3.2506,3.2503,3.2504,3.249,3.2492,3.2495,3.2502,3.2489,3.2483,3.248,3.2511,3.2511,3.2511,3.2511,0,0,3.2543,3.2539,3.2537,3.2534,3.2529,3.2525,3.2517,3.251,3.2506,3.2502,3.2494,3.2485,3.2488,3.2484,3.2484,3.2477,3.2463,3.2481,3.2481,3.2477,3.2446,3.2443,3.244,3.2465,3.2464,3.2464,3.2446,0,3.2531,3.2518,3.2519,3.2507,3.2501,3.2503,3.2496,3.2492,3.249,3.2483,3.2481,3.2474,3.2479,3.2476,3.247,3.2466,3.2457,3.2468,3.2456,3.2456,3.2457,3.2437,3.2434,3.2417,3.2443,3.2443,3.2443,0,3.2515,3.251,3.2497,3.2492,3.249,3.2484,3.2477,3.2471,3.2466,3.2465,3.246,3.246,3.2451,3.2457,3.2443,3.245,3.2445,3.2443,3.2442,3.2441,3.2448,3.2434,3.2412,3.2409,3.2439,3.2439,3.244,0,3.2504,3.2494,3.2485,3.2482,3.2477,3.2472,3.2469,3.2464,3.246,3.2453,3.245,3.2442,3.2438,3.2431,3.2429,3.2434,3.2414,3.2421,3.2412,3.2412,3.2407,3.2407,3.2383,3.2405,3.2405,3.2406,3.2406,0,3.249,3.2481,3.248,3.2474,3.2464,3.2464,3.2454,3.2451,3.2446,3.2439,3.244,3.2433,3.2431,3.2423,3.2421,3.2409,3.2407,3.2405,3.2404,3.2404,3.2404,3.24,3.2401,3.2405,3.2405,3.2405,3.2405,0,3.2476,3.2475,3.2464,3.246,3.2458,3.2451,3.2446,3.244,3.2437,3.2428,3.2425,3.2422,3.2412,3.2409,3.2398,3.2396,3.2381,3.2382,3.2383,3.2383,3.2373,3.2374,3.2345,3.2341,3.2367,3.2366,3.2366,0,3.2466,3.246,3.2454,3.245,3.2447,3.2439,3.2435,3.2434,3.2428,3.242,3.2414,3.2405,3.2397,3.2381,3.2377,3.2367,3.2367,3.2358,3.2366,3.2365,3.2365,3.2366,3.2364,3.2356,3.2356,3.2356,3.2356,0,3.245,3.2449,3.2442,3.2435,3.2429,3.2423,3.2418,3.2413,3.2411,3.2405,3.2395,3.2389,3.2377,3.2366,3.2356,3.2352,3.2353,3.2353,3.235,3.235,3.235,3.2348,3.2378,3.2354,3.2354,3.2354,3.2354,3.2354,3.2437,3.2431,3.2425,3.2417,3.2413,3.2407,3.24,3.2397,3.2389,3.2379,3.2379,3.2368,3.236,3.2347,3.2342,3.2332,3.2335,3.2331,3.233,3.2328,3.2327,3.2352,3.233,3.233,3.233,3.233,3.233,0,3.2419,3.2416,3.2408,3.24,3.2393,3.2395,3.2388,3.2382,3.2373,3.2366,3.2358,3.2346,3.2335,3.2329,3.2318,3.2311,3.2311,3.2309,3.2309,3.2307,3.2326,3.2329,3.2309,3.2309,3.2309,3.2309,3.2309,3.2309,3.2409,3.2398,3.2397,3.2383,3.2379,3.2368,3.2364,3.2358,3.2352,3.2339,3.233,3.2327,3.2319,3.2308,3.2298,3.2296,3.2291,3.2288,3.2286,3.2304,3.2306,3.2308,3.2311,3.2287,3.2287,3.2268,3.2268,3.2268]}]]